Year,Month,Day,Hour,Minute,Value (Times are PST for windspeed in km/hr)
2019,07,24,00,00,0.10
2019,07,24,00,01,1.50
2019,07,24,00,02,0.70
2019,07,24,00,03,0.00
2019,07,24,00,04,0.00
2019,07,24,00,05,0.60
2019,07,24,00,06,1.50
2019,07,24,00,07,0.00
2019,07,24,00,08,0.00
2019,07,24,00,09,0.40
2019,07,24,00,10,0.00
2019,07,24,00,11,0.00
2019,07,24,00,12,0.10
2019,07,24,00,13,0.00
2019,07,24,00,14,0.00
2019,07,24,00,15,0.30
2019,07,24,00,16,0.20
2019,07,24,00,17,0.00
2019,07,24,00,18,0.00
2019,07,24,00,19,1.40
2019,07,24,00,20,1.10
2019,07,24,00,21,0.50
2019,07,24,00,22,0.00
2019,07,24,00,23,0.00
2019,07,24,00,24,0.00
2019,07,24,00,25,0.10
2019,07,24,00,26,1.40
2019,07,24,00,27,1.60
2019,07,24,00,28,0.30
2019,07,24,00,29,0.00
2019,07,24,00,30,0.00
2019,07,24,00,31,0.90
2019,07,24,00,32,0.70
2019,07,24,00,33,0.00
2019,07,24,00,34,0.00
2019,07,24,00,35,0.00
2019,07,24,00,36,0.00
2019,07,24,00,37,0.00
2019,07,24,00,38,0.40
2019,07,24,00,39,1.70
2019,07,24,00,40,0.50
2019,07,24,00,41,0.00
2019,07,24,00,42,0.00
2019,07,24,00,43,0.00
2019,07,24,00,44,0.00
2019,07,24,00,45,0.00
2019,07,24,00,46,0.00
2019,07,24,00,47,0.00
2019,07,24,00,48,0.00
2019,07,24,00,49,0.70
2019,07,24,00,50,0.00
2019,07,24,00,51,0.00
2019,07,24,00,52,0.00
2019,07,24,00,53,0.90
2019,07,24,00,54,0.20
2019,07,24,00,55,0.00
2019,07,24,00,56,0.40
2019,07,24,00,57,0.90
2019,07,24,00,58,0.00
2019,07,24,00,59,0.00
2019,07,24,01,00,0.00
2019,07,24,01,01,0.00
2019,07,24,01,02,0.00
2019,07,24,01,03,0.40
2019,07,24,01,04,0.70
2019,07,24,01,05,0.40
2019,07,24,01,06,0.00
2019,07,24,01,07,0.10
2019,07,24,01,08,1.80
2019,07,24,01,09,2.10
2019,07,24,01,10,0.70
2019,07,24,01,11,2.60
2019,07,24,01,12,1.20
2019,07,24,01,13,0.10
2019,07,24,01,14,1.10
2019,07,24,01,15,0.90
2019,07,24,01,16,0.00
2019,07,24,01,17,0.00
2019,07,24,01,18,0.00
2019,07,24,01,19,0.10
2019,07,24,01,20,1.30
2019,07,24,01,21,1.10
2019,07,24,01,22,0.40
2019,07,24,01,23,0.70
2019,07,24,01,24,0.20
2019,07,24,01,25,0.00
2019,07,24,01,26,0.00
2019,07,24,01,27,1.50
2019,07,24,01,28,0.80
2019,07,24,01,29,0.40
2019,07,24,01,30,0.10
2019,07,24,01,31,1.30
2019,07,24,01,32,0.90
2019,07,24,01,33,1.00
2019,07,24,01,34,4.50
2019,07,24,01,35,0.60
2019,07,24,01,36,0.00
2019,07,24,01,37,0.10
2019,07,24,01,38,0.00
2019,07,24,01,39,0.80
2019,07,24,01,40,0.70
2019,07,24,01,41,0.00
2019,07,24,01,42,0.10
2019,07,24,01,43,1.30
2019,07,24,01,44,1.10
2019,07,24,01,45,2.50
2019,07,24,01,46,0.40
2019,07,24,01,47,0.90
2019,07,24,01,48,2.20
2019,07,24,01,49,0.00
2019,07,24,01,50,0.00
2019,07,24,01,51,0.30
2019,07,24,01,52,0.30
2019,07,24,01,53,0.00
2019,07,24,01,54,0.00
2019,07,24,01,55,1.10
2019,07,24,01,56,2.70
2019,07,24,01,57,2.50
2019,07,24,01,58,2.50
2019,07,24,01,59,0.60
2019,07,24,02,00,0.00
2019,07,24,02,01,0.40
2019,07,24,02,02,2.10
2019,07,24,02,03,1.90
2019,07,24,02,04,0.90
2019,07,24,02,05,0.40
2019,07,24,02,06,0.90
2019,07,24,02,07,0.00
2019,07,24,02,08,0.40
2019,07,24,02,09,0.70
2019,07,24,02,10,0.10
2019,07,24,02,11,0.00
2019,07,24,02,12,1.40
2019,07,24,02,13,0.50
2019,07,24,02,14,1.50
2019,07,24,02,15,2.50
2019,07,24,02,16,1.10
2019,07,24,02,17,0.00
2019,07,24,02,18,2.80
2019,07,24,02,19,0.50
2019,07,24,02,20,2.00
2019,07,24,02,21,0.20
2019,07,24,02,22,2.20
2019,07,24,02,23,1.40
2019,07,24,02,24,1.10
2019,07,24,02,25,1.90
2019,07,24,02,26,1.60
2019,07,24,02,27,0.60
2019,07,24,02,28,2.10
2019,07,24,02,29,0.80
2019,07,24,02,30,0.30
2019,07,24,02,31,1.40
2019,07,24,02,32,0.90
2019,07,24,02,33,0.00
2019,07,24,02,34,0.30
2019,07,24,02,35,0.50
2019,07,24,02,36,0.00
2019,07,24,02,37,1.80
2019,07,24,02,38,1.10
2019,07,24,02,39,0.20
2019,07,24,02,40,1.20
2019,07,24,02,41,0.80
2019,07,24,02,42,0.00
2019,07,24,02,43,0.00
2019,07,24,02,44,0.00
2019,07,24,02,45,0.10
2019,07,24,02,46,1.50
2019,07,24,02,47,0.60
2019,07,24,02,48,0.00
2019,07,24,02,49,0.90
2019,07,24,02,50,1.10
2019,07,24,02,51,1.70
2019,07,24,02,52,2.00
2019,07,24,02,53,2.40
2019,07,24,02,54,1.80
2019,07,24,02,55,0.10
2019,07,24,02,56,0.00
2019,07,24,02,57,0.00
2019,07,24,02,58,0.00
2019,07,24,02,59,0.90
2019,07,24,03,00,1.00
2019,07,24,03,01,1.90
2019,07,24,03,02,1.50
2019,07,24,03,03,1.00
2019,07,24,03,04,0.00
2019,07,24,03,05,0.60
2019,07,24,03,06,1.50
2019,07,24,03,07,0.70
2019,07,24,03,08,0.60
2019,07,24,03,09,0.30
2019,07,24,03,10,0.00
2019,07,24,03,11,0.00
2019,07,24,03,12,0.00
2019,07,24,03,13,2.30
2019,07,24,03,14,1.50
2019,07,24,03,15,0.00
2019,07,24,03,16,0.00
2019,07,24,03,17,0.00
2019,07,24,03,18,0.00
2019,07,24,03,19,0.00
2019,07,24,03,20,0.00
2019,07,24,03,21,0.00
2019,07,24,03,22,0.00
2019,07,24,03,23,0.00
2019,07,24,03,24,0.60
2019,07,24,03,25,0.10
2019,07,24,03,26,0.00
2019,07,24,03,27,0.00
2019,07,24,03,28,0.00
2019,07,24,03,29,0.00
2019,07,24,03,30,0.00
2019,07,24,03,31,0.90
2019,07,24,03,32,1.10
2019,07,24,03,33,0.00
2019,07,24,03,34,0.00
2019,07,24,03,35,0.00
2019,07,24,03,36,0.10
2019,07,24,03,37,1.70
2019,07,24,03,38,0.20
2019,07,24,03,39,0.00
2019,07,24,03,40,0.00
2019,07,24,03,41,0.00
2019,07,24,03,42,0.80
2019,07,24,03,43,0.30
2019,07,24,03,44,0.00
2019,07,24,03,45,0.00
2019,07,24,03,46,0.00
2019,07,24,03,47,0.00
2019,07,24,03,48,0.00
2019,07,24,03,49,0.00
2019,07,24,03,50,0.30
2019,07,24,03,51,0.00
2019,07,24,03,52,0.00
2019,07,24,03,53,0.00
2019,07,24,03,54,0.00
2019,07,24,03,55,0.10
2019,07,24,03,56,0.30
2019,07,24,03,57,1.20
2019,07,24,03,58,0.20
2019,07,24,03,59,0.00
2019,07,24,04,00,0.00
2019,07,24,04,01,0.20
2019,07,24,04,02,0.00
2019,07,24,04,03,0.10
2019,07,24,04,04,2.20
2019,07,24,04,05,1.50
2019,07,24,04,06,0.00
2019,07,24,04,07,0.00
2019,07,24,04,08,0.00
2019,07,24,04,09,0.40
2019,07,24,04,10,0.00
2019,07,24,04,11,0.00
2019,07,24,04,12,0.10
2019,07,24,04,13,1.10
2019,07,24,04,14,1.10
2019,07,24,04,15,0.20
2019,07,24,04,16,0.40
2019,07,24,04,17,0.40
2019,07,24,04,18,1.00
2019,07,24,04,19,1.10
2019,07,24,04,20,0.60
2019,07,24,04,21,0.40
2019,07,24,04,22,0.60
2019,07,24,04,23,0.60
2019,07,24,04,24,1.00
2019,07,24,04,25,0.00
2019,07,24,04,26,0.00
2019,07,24,04,27,2.10
2019,07,24,04,28,1.10
2019,07,24,04,29,1.40
2019,07,24,04,30,0.60
2019,07,24,04,31,1.10
2019,07,24,04,32,0.50
2019,07,24,04,33,1.00
2019,07,24,04,34,1.70
2019,07,24,04,35,2.00
2019,07,24,04,36,0.30
2019,07,24,04,37,0.00
2019,07,24,04,38,0.30
2019,07,24,04,39,1.00
2019,07,24,04,40,0.00
2019,07,24,04,41,0.00
2019,07,24,04,42,0.00
2019,07,24,04,43,0.00
2019,07,24,04,44,0.00
2019,07,24,04,45,0.00
2019,07,24,04,46,0.00
2019,07,24,04,47,0.00
2019,07,24,04,48,0.40
2019,07,24,04,49,0.10
2019,07,24,04,50,0.00
2019,07,24,04,51,0.50
2019,07,24,04,52,0.40
2019,07,24,04,53,0.00
2019,07,24,04,54,0.00
2019,07,24,04,55,0.00
2019,07,24,04,56,0.00
2019,07,24,04,57,0.00
2019,07,24,04,58,0.00
2019,07,24,04,59,0.00
2019,07,24,05,00,0.00
2019,07,24,05,01,0.00
2019,07,24,05,02,0.00
2019,07,24,05,03,0.00
2019,07,24,05,04,0.00
2019,07,24,05,05,0.00
2019,07,24,05,06,0.00
2019,07,24,05,07,0.00
2019,07,24,05,08,0.00
2019,07,24,05,09,0.00
2019,07,24,05,10,0.00
2019,07,24,05,11,0.00
2019,07,24,05,12,0.00
2019,07,24,05,13,0.00
2019,07,24,05,14,0.00
2019,07,24,05,15,0.00
2019,07,24,05,16,0.00
2019,07,24,05,17,0.00
2019,07,24,05,18,0.00
2019,07,24,05,19,0.00
2019,07,24,05,20,0.00
2019,07,24,05,21,0.00
2019,07,24,05,22,0.00
2019,07,24,05,23,0.00
2019,07,24,05,24,0.00
2019,07,24,05,25,0.00
2019,07,24,05,26,0.00
2019,07,24,05,27,0.00
2019,07,24,05,28,0.00
2019,07,24,05,29,0.00
2019,07,24,05,30,0.00
2019,07,24,05,31,0.00
2019,07,24,05,32,0.00
2019,07,24,05,33,0.00
2019,07,24,05,34,0.00
2019,07,24,05,35,0.00
2019,07,24,05,36,0.00
2019,07,24,05,37,0.00
2019,07,24,05,38,0.00
2019,07,24,05,39,0.00
2019,07,24,05,40,0.00
2019,07,24,05,41,0.00
2019,07,24,05,42,0.00
2019,07,24,05,43,0.00
2019,07,24,05,44,0.00
2019,07,24,05,45,0.00
2019,07,24,05,46,0.00
2019,07,24,05,47,0.00
2019,07,24,05,48,0.00
2019,07,24,05,49,0.00
2019,07,24,05,50,0.00
2019,07,24,05,51,0.00
2019,07,24,05,52,0.00
2019,07,24,05,53,0.00
2019,07,24,05,54,0.00
2019,07,24,05,55,0.90
2019,07,24,05,56,0.10
2019,07,24,05,57,0.00
2019,07,24,05,58,0.00
2019,07,24,05,59,0.00
2019,07,24,06,00,0.00
2019,07,24,06,01,0.00
2019,07,24,06,02,0.00
2019,07,24,06,03,0.00
2019,07,24,06,04,0.00
2019,07,24,06,05,0.00
2019,07,24,06,06,0.10
2019,07,24,06,07,0.10
2019,07,24,06,08,0.30
2019,07,24,06,09,0.70
2019,07,24,06,10,0.40
2019,07,24,06,11,0.60
2019,07,24,06,12,1.10
2019,07,24,06,13,0.10
2019,07,24,06,14,0.00
2019,07,24,06,15,0.00
2019,07,24,06,16,0.00
2019,07,24,06,17,0.00
2019,07,24,06,18,0.00
2019,07,24,06,19,0.00
2019,07,24,06,20,0.30
2019,07,24,06,21,0.00
2019,07,24,06,22,0.00
2019,07,24,06,23,0.00
2019,07,24,06,24,0.00
2019,07,24,06,25,0.00
2019,07,24,06,26,0.00
2019,07,24,06,27,0.00
2019,07,24,06,28,0.00
2019,07,24,06,29,0.00
2019,07,24,06,30,0.00
2019,07,24,06,31,0.00
2019,07,24,06,32,0.00
2019,07,24,06,33,0.00
2019,07,24,06,34,0.50
2019,07,24,06,35,0.00
2019,07,24,06,36,0.00
2019,07,24,06,37,0.00
2019,07,24,06,38,0.00
2019,07,24,06,39,0.00
2019,07,24,06,40,0.00
2019,07,24,06,41,0.00
2019,07,24,06,42,0.00
2019,07,24,06,43,0.00
2019,07,24,06,44,0.00
2019,07,24,06,45,0.00
2019,07,24,06,46,0.00
2019,07,24,06,47,0.00
2019,07,24,06,48,0.00
2019,07,24,06,49,0.00
2019,07,24,06,50,0.00
2019,07,24,06,51,0.00
2019,07,24,06,52,0.00
2019,07,24,06,53,0.00
2019,07,24,06,54,0.00
2019,07,24,06,55,0.00
2019,07,24,06,56,0.00
2019,07,24,06,57,0.00
2019,07,24,06,58,0.00
2019,07,24,06,59,0.00
2019,07,24,07,00,0.00
2019,07,24,07,01,0.00
2019,07,24,07,02,0.00
2019,07,24,07,03,0.00
2019,07,24,07,04,0.00
2019,07,24,07,05,0.00
2019,07,24,07,06,0.00
2019,07,24,07,07,0.00
2019,07,24,07,08,0.00
2019,07,24,07,09,0.40
2019,07,24,07,10,0.10
2019,07,24,07,11,0.20
2019,07,24,07,12,0.40
2019,07,24,07,13,0.00
2019,07,24,07,14,0.00
2019,07,24,07,15,0.00
2019,07,24,07,16,0.00
2019,07,24,07,17,0.00
2019,07,24,07,18,0.00
2019,07,24,07,19,0.00
2019,07,24,07,20,0.00
2019,07,24,07,21,0.00
2019,07,24,07,22,0.00
2019,07,24,07,23,0.00
2019,07,24,07,24,0.00
2019,07,24,07,25,0.00
2019,07,24,07,26,0.00
2019,07,24,07,27,0.00
2019,07,24,07,28,0.00
2019,07,24,07,29,0.00
2019,07,24,07,30,0.00
2019,07,24,07,31,0.00
2019,07,24,07,32,0.00
2019,07,24,07,33,0.00
2019,07,24,07,34,0.00
2019,07,24,07,35,0.00
2019,07,24,07,36,0.00
2019,07,24,07,37,0.00
2019,07,24,07,38,0.00
2019,07,24,07,39,0.00
2019,07,24,07,40,0.00
2019,07,24,07,41,0.00
2019,07,24,07,42,0.00
2019,07,24,07,43,0.00
2019,07,24,07,44,0.00
2019,07,24,07,45,0.00
2019,07,24,07,46,0.00
2019,07,24,07,47,0.00
2019,07,24,07,48,0.00
2019,07,24,07,49,0.00
2019,07,24,07,50,0.00
2019,07,24,07,51,0.10
2019,07,24,07,52,0.90
2019,07,24,07,53,0.00
2019,07,24,07,54,0.00
2019,07,24,07,55,0.00
2019,07,24,07,56,0.00
2019,07,24,07,57,0.00
2019,07,24,07,58,0.00
2019,07,24,07,59,0.00
2019,07,24,08,00,0.00
2019,07,24,08,01,0.00
2019,07,24,08,02,0.00
2019,07,24,08,03,0.00
2019,07,24,08,04,0.00
2019,07,24,08,05,0.80
2019,07,24,08,06,0.90
2019,07,24,08,07,0.60
2019,07,24,08,08,0.00
2019,07,24,08,09,0.40
2019,07,24,08,10,0.70
2019,07,24,08,11,0.10
2019,07,24,08,12,3.10
2019,07,24,08,13,2.00
2019,07,24,08,14,1.90
2019,07,24,08,15,1.40
2019,07,24,08,16,0.80
2019,07,24,08,17,1.10
2019,07,24,08,18,1.80
2019,07,24,08,19,1.60
2019,07,24,08,20,2.20
2019,07,24,08,21,2.10
2019,07,24,08,22,1.40
2019,07,24,08,23,2.70
2019,07,24,08,24,3.30
2019,07,24,08,25,2.00
2019,07,24,08,26,1.50
2019,07,24,08,27,1.40
2019,07,24,08,28,1.70
2019,07,24,08,29,1.20
2019,07,24,08,30,0.90
2019,07,24,08,31,0.60
2019,07,24,08,32,1.90
2019,07,24,08,33,2.60
2019,07,24,08,34,2.10
2019,07,24,08,35,2.90
2019,07,24,08,36,5.10
2019,07,24,08,37,3.50
2019,07,24,08,38,2.70
2019,07,24,08,39,1.70
2019,07,24,08,40,0.80
2019,07,24,08,41,0.00
2019,07,24,08,42,0.20
2019,07,24,08,43,1.00
2019,07,24,08,44,0.90
2019,07,24,08,45,2.10
2019,07,24,08,46,1.90
2019,07,24,08,47,2.50
2019,07,24,08,48,1.70
2019,07,24,08,49,0.20
2019,07,24,08,50,0.30
2019,07,24,08,51,2.30
2019,07,24,08,52,3.60
2019,07,24,08,53,3.00
2019,07,24,08,54,2.00
2019,07,24,08,55,0.20
2019,07,24,08,56,1.00
2019,07,24,08,57,0.10
2019,07,24,08,58,0.00
2019,07,24,08,59,0.00
2019,07,24,09,00,0.00
2019,07,24,09,01,0.00
2019,07,24,09,02,0.00
2019,07,24,09,03,1.20
2019,07,24,09,04,1.80
2019,07,24,09,05,2.10
2019,07,24,09,06,0.90
2019,07,24,09,07,3.50
2019,07,24,09,08,6.60
2019,07,24,09,09,3.60
2019,07,24,09,10,2.50
2019,07,24,09,11,1.60
2019,07,24,09,12,2.50
2019,07,24,09,13,0.80
2019,07,24,09,14,1.60
2019,07,24,09,15,2.00
2019,07,24,09,16,0.70
2019,07,24,09,17,0.50
2019,07,24,09,18,0.00
2019,07,24,09,19,0.90
2019,07,24,09,20,0.00
2019,07,24,09,21,1.40
2019,07,24,09,22,2.40
2019,07,24,09,23,2.30
2019,07,24,09,24,1.60
2019,07,24,09,25,4.10
2019,07,24,09,26,4.30
2019,07,24,09,27,2.70
2019,07,24,09,28,2.10
2019,07,24,09,29,1.80
2019,07,24,09,30,2.00
2019,07,24,09,31,2.40
2019,07,24,09,32,1.30
2019,07,24,09,33,0.00
2019,07,24,09,34,0.60
2019,07,24,09,35,0.00
2019,07,24,09,36,1.10
2019,07,24,09,37,2.40
2019,07,24,09,38,4.30
2019,07,24,09,39,4.60
2019,07,24,09,40,3.10
2019,07,24,09,41,2.20
2019,07,24,09,42,2.10
2019,07,24,09,43,4.10
2019,07,24,09,44,3.90
2019,07,24,09,45,1.90
2019,07,24,09,46,1.70
2019,07,24,09,47,0.60
2019,07,24,09,48,0.00
2019,07,24,09,49,1.10
2019,07,24,09,50,2.80
2019,07,24,09,51,2.10
2019,07,24,09,52,1.20
2019,07,24,09,53,0.60
2019,07,24,09,54,2.30
2019,07,24,09,55,2.80
2019,07,24,09,56,2.20
2019,07,24,09,57,2.80
2019,07,24,09,58,4.20
2019,07,24,09,59,3.50
2019,07,24,10,00,1.80
2019,07,24,10,01,1.10
2019,07,24,10,02,1.20
2019,07,24,10,03,1.20
2019,07,24,10,04,0.00
2019,07,24,10,05,0.00
2019,07,24,10,06,1.40
2019,07,24,10,07,1.70
2019,07,24,10,08,1.20
2019,07,24,10,09,0.50
2019,07,24,10,10,0.40
2019,07,24,10,11,0.00
2019,07,24,10,12,0.00
2019,07,24,10,13,0.60
2019,07,24,10,14,1.10
2019,07,24,10,15,1.90
2019,07,24,10,16,0.40
2019,07,24,10,17,1.00
2019,07,24,10,18,2.70
2019,07,24,10,19,4.30
2019,07,24,10,20,2.40
2019,07,24,10,21,4.60
2019,07,24,10,22,4.20
2019,07,24,10,23,3.00
2019,07,24,10,24,0.50
2019,07,24,10,25,1.80
2019,07,24,10,26,1.70
2019,07,24,10,27,2.80
2019,07,24,10,28,2.30
2019,07,24,10,29,1.00
2019,07,24,10,30,1.10
2019,07,24,10,31,1.70
2019,07,24,10,32,1.40
2019,07,24,10,33,0.30
2019,07,24,10,34,1.10
2019,07,24,10,35,2.50
2019,07,24,10,36,2.80
2019,07,24,10,37,2.50
2019,07,24,10,38,1.40
2019,07,24,10,39,1.70
2019,07,24,10,40,0.40
2019,07,24,10,41,1.20
2019,07,24,10,42,1.50
2019,07,24,10,43,1.70
2019,07,24,10,44,0.40
2019,07,24,10,45,1.50
2019,07,24,10,46,1.10
2019,07,24,10,47,1.90
2019,07,24,10,48,0.90
2019,07,24,10,49,0.10
2019,07,24,10,50,1.00
2019,07,24,10,51,0.20
2019,07,24,10,52,0.20
2019,07,24,10,53,0.30
2019,07,24,10,54,0.00
2019,07,24,10,55,0.60
2019,07,24,10,56,0.70
2019,07,24,10,57,0.20
2019,07,24,10,58,0.00
2019,07,24,10,59,2.70
2019,07,24,11,00,5.00
2019,07,24,11,01,4.20
2019,07,24,11,02,2.70
2019,07,24,11,03,1.30
2019,07,24,11,04,1.40
2019,07,24,11,05,3.40
2019,07,24,11,06,4.00
2019,07,24,11,07,2.50
2019,07,24,11,08,0.50
2019,07,24,11,09,0.00
2019,07,24,11,10,0.30
2019,07,24,11,11,1.10
2019,07,24,11,12,0.50
2019,07,24,11,13,1.10
2019,07,24,11,14,3.30
2019,07,24,11,15,2.40
2019,07,24,11,16,1.40
2019,07,24,11,17,2.80
2019,07,24,11,18,3.50
2019,07,24,11,19,1.20
2019,07,24,11,20,1.80
2019,07,24,11,21,4.20
2019,07,24,11,22,2.80
2019,07,24,11,23,3.90
2019,07,24,11,24,1.50
2019,07,24,11,25,1.90
2019,07,24,11,26,1.40
2019,07,24,11,27,2.00
2019,07,24,11,28,2.30
2019,07,24,11,29,1.80
2019,07,24,11,30,3.40
2019,07,24,11,31,5.20
2019,07,24,11,32,2.20
2019,07,24,11,33,1.00
2019,07,24,11,34,1.90
2019,07,24,11,35,1.20
2019,07,24,11,36,0.60
2019,07,24,11,37,1.30
2019,07,24,11,38,1.90
2019,07,24,11,39,6.60
2019,07,24,11,40,5.50
2019,07,24,11,41,6.10
2019,07,24,11,42,2.60
2019,07,24,11,43,2.10
2019,07,24,11,44,1.30
2019,07,24,11,45,2.50
2019,07,24,11,46,5.00
2019,07,24,11,47,4.80
2019,07,24,11,48,4.10
2019,07,24,11,49,2.80
2019,07,24,11,50,2.50
2019,07,24,11,51,3.50
2019,07,24,11,52,3.40
2019,07,24,11,53,5.00
2019,07,24,11,54,3.30
2019,07,24,11,55,4.60
2019,07,24,11,56,1.50
2019,07,24,11,57,0.70
2019,07,24,11,58,1.20
2019,07,24,11,59,3.20
2019,07,24,12,00,3.70
2019,07,24,12,01,3.70
2019,07,24,12,02,2.80
2019,07,24,12,03,0.60
2019,07,24,12,04,0.40
2019,07,24,12,05,1.90
2019,07,24,12,06,1.70
2019,07,24,12,07,3.00
2019,07,24,12,08,4.50
2019,07,24,12,09,3.60
2019,07,24,12,10,5.00
2019,07,24,12,11,2.70
2019,07,24,12,12,5.40
2019,07,24,12,13,3.50
2019,07,24,12,14,1.00
2019,07,24,12,15,1.10
2019,07,24,12,16,4.60
2019,07,24,12,17,2.30
2019,07,24,12,18,6.30
2019,07,24,12,19,6.40
2019,07,24,12,20,3.60
2019,07,24,12,21,1.20
2019,07,24,12,22,1.80
2019,07,24,12,23,1.80
2019,07,24,12,24,4.40
2019,07,24,12,25,3.50
2019,07,24,12,26,4.60
2019,07,24,12,27,2.80
2019,07,24,12,28,4.60
2019,07,24,12,29,5.40
2019,07,24,12,30,5.70
2019,07,24,12,31,5.20
2019,07,24,12,32,7.20
2019,07,24,12,33,8.60
2019,07,24,12,34,2.50
2019,07,24,12,35,3.40
2019,07,24,12,36,1.50
2019,07,24,12,37,2.70
2019,07,24,12,38,4.40
2019,07,24,12,39,2.60
2019,07,24,12,40,5.90
2019,07,24,12,41,5.90
2019,07,24,12,42,6.50
2019,07,24,12,43,5.90
2019,07,24,12,44,9.00
2019,07,24,12,45,6.10
2019,07,24,12,46,6.80
2019,07,24,12,47,1.40
2019,07,24,12,48,4.20
2019,07,24,12,49,1.60
2019,07,24,12,50,2.00
2019,07,24,12,51,1.70
2019,07,24,12,52,2.00
2019,07,24,12,53,5.80
2019,07,24,12,54,2.80
2019,07,24,12,55,5.90
2019,07,24,12,56,7.60
2019,07,24,12,57,4.00
2019,07,24,12,58,4.60
2019,07,24,12,59,4.00
2019,07,24,13,00,0.90
2019,07,24,13,01,1.90
2019,07,24,13,02,2.80
2019,07,24,13,03,2.70
2019,07,24,13,04,4.40
2019,07,24,13,05,4.00
2019,07,24,13,06,5.30
2019,07,24,13,07,5.20
2019,07,24,13,08,3.70
2019,07,24,13,09,0.60
2019,07,24,13,10,1.70
2019,07,24,13,11,2.50
2019,07,24,13,12,1.40
2019,07,24,13,13,7.70
2019,07,24,13,14,3.60
2019,07,24,13,15,2.70
2019,07,24,13,16,4.70
2019,07,24,13,17,1.70
2019,07,24,13,18,1.20
2019,07,24,13,19,3.10
2019,07,24,13,20,2.00
2019,07,24,13,21,0.70
2019,07,24,13,22,0.70
2019,07,24,13,23,1.90
2019,07,24,13,24,1.30
2019,07,24,13,25,1.10
2019,07,24,13,26,1.50
2019,07,24,13,27,2.40
2019,07,24,13,28,4.10
2019,07,24,13,29,4.10
2019,07,24,13,30,4.60
2019,07,24,13,31,1.40
2019,07,24,13,32,1.70
2019,07,24,13,33,2.60
2019,07,24,13,34,2.10
2019,07,24,13,35,1.90
2019,07,24,13,36,1.20
2019,07,24,13,37,3.20
2019,07,24,13,38,2.60
2019,07,24,13,39,1.20
2019,07,24,13,40,2.50
2019,07,24,13,41,1.20
2019,07,24,13,42,2.00
2019,07,24,13,43,1.80
2019,07,24,13,44,2.60
2019,07,24,13,45,4.00
2019,07,24,13,46,2.50
2019,07,24,13,47,1.40
2019,07,24,13,48,0.60
2019,07,24,13,49,6.70
2019,07,24,13,50,3.80
2019,07,24,13,51,3.70
2019,07,24,13,52,2.40
2019,07,24,13,53,3.20
2019,07,24,13,54,3.80
2019,07,24,13,55,5.00
2019,07,24,13,56,2.50
2019,07,24,13,57,3.10
2019,07,24,13,58,2.80
2019,07,24,13,59,3.20
2019,07,24,14,00,2.80
2019,07,24,14,01,4.00
2019,07,24,14,02,4.20
2019,07,24,14,03,3.00
2019,07,24,14,04,3.30
2019,07,24,14,05,3.70
2019,07,24,14,06,2.80
2019,07,24,14,07,5.00
2019,07,24,14,08,4.20
2019,07,24,14,09,3.20
2019,07,24,14,10,3.90
2019,07,24,14,11,1.70
2019,07,24,14,12,5.30
2019,07,24,14,13,4.80
2019,07,24,14,14,3.10
2019,07,24,14,15,3.30
2019,07,24,14,16,4.20
2019,07,24,14,17,4.10
2019,07,24,14,18,4.20
2019,07,24,14,19,4.60
2019,07,24,14,20,2.60
2019,07,24,14,21,2.80
2019,07,24,14,22,3.30
2019,07,24,14,23,3.00
2019,07,24,14,24,5.20
2019,07,24,14,25,5.00
2019,07,24,14,26,4.00
2019,07,24,14,27,4.00
2019,07,24,14,28,4.20
2019,07,24,14,29,5.00
2019,07,24,14,30,4.30
2019,07,24,14,31,3.90
2019,07,24,14,32,3.90
2019,07,24,14,33,4.40
2019,07,24,14,34,4.40
2019,07,24,14,35,5.70
2019,07,24,14,36,3.50
2019,07,24,14,37,3.90
2019,07,24,14,38,5.70
2019,07,24,14,39,5.30
2019,07,24,14,40,3.40
2019,07,24,14,41,3.30
2019,07,24,14,42,2.20
2019,07,24,14,43,3.80
2019,07,24,14,44,3.70
2019,07,24,14,45,4.30
2019,07,24,14,46,5.00
2019,07,24,14,47,5.40
2019,07,24,14,48,4.20
2019,07,24,14,49,4.30
2019,07,24,14,50,4.30
2019,07,24,14,51,4.60
2019,07,24,14,52,3.90
2019,07,24,14,53,3.00
2019,07,24,14,54,2.60
2019,07,24,14,55,4.40
2019,07,24,14,56,6.10
2019,07,24,14,57,3.80
2019,07,24,14,58,5.20
2019,07,24,14,59,4.00
2019,07,24,15,00,3.50
2019,07,24,15,01,2.70
2019,07,24,15,02,4.20
2019,07,24,15,03,4.50
2019,07,24,15,04,4.20
2019,07,24,15,05,3.90
2019,07,24,15,06,4.30
2019,07,24,15,07,5.80
2019,07,24,15,08,4.40
2019,07,24,15,09,5.20
2019,07,24,15,10,5.90
2019,07,24,15,11,5.70
2019,07,24,15,12,4.40
2019,07,24,15,13,3.50
2019,07,24,15,14,5.30
2019,07,24,15,15,3.00
2019,07,24,15,16,5.30
2019,07,24,15,17,5.70
2019,07,24,15,18,4.10
2019,07,24,15,19,3.50
2019,07,24,15,20,3.20
2019,07,24,15,21,3.20
2019,07,24,15,22,4.80
2019,07,24,15,23,4.10
2019,07,24,15,24,5.30
2019,07,24,15,25,5.30
2019,07,24,15,26,6.10
2019,07,24,15,27,4.20
2019,07,24,15,28,3.10
2019,07,24,15,29,2.30
2019,07,24,15,30,5.10
2019,07,24,15,31,2.40
2019,07,24,15,32,2.40
2019,07,24,15,33,2.60
2019,07,24,15,34,2.60
2019,07,24,15,35,4.60
2019,07,24,15,36,4.30
2019,07,24,15,37,4.00
2019,07,24,15,38,3.50
2019,07,24,15,39,3.60
2019,07,24,15,40,3.00
2019,07,24,15,41,2.40
2019,07,24,15,42,4.50
2019,07,24,15,43,3.30
2019,07,24,15,44,2.70
2019,07,24,15,45,2.00
2019,07,24,15,46,2.70
2019,07,24,15,47,2.40
2019,07,24,15,48,1.90
2019,07,24,15,49,2.90
2019,07,24,15,50,3.00
2019,07,24,15,51,2.50
2019,07,24,15,52,3.70
2019,07,24,15,53,3.00
2019,07,24,15,54,2.80
2019,07,24,15,55,3.60
2019,07,24,15,56,2.70
2019,07,24,15,57,2.60
2019,07,24,15,58,3.00
2019,07,24,15,59,3.50
2019,07,24,16,00,3.10
2019,07,24,16,01,2.60
2019,07,24,16,02,4.10
2019,07,24,16,03,3.20
2019,07,24,16,04,3.20
2019,07,24,16,05,2.30
2019,07,24,16,06,2.60
2019,07,24,16,07,5.00
2019,07,24,16,08,2.80
2019,07,24,16,09,2.70
2019,07,24,16,10,2.40
2019,07,24,16,11,2.70
2019,07,24,16,12,1.90
2019,07,24,16,13,4.10
2019,07,24,16,14,1.70
2019,07,24,16,15,2.50
2019,07,24,16,16,3.20
2019,07,24,16,17,2.90
2019,07,24,16,18,3.00
2019,07,24,16,19,2.30
2019,07,24,16,20,4.60
2019,07,24,16,21,0.90
2019,07,24,16,22,2.00
2019,07,24,16,23,3.20
2019,07,24,16,24,1.60
2019,07,24,16,25,1.20
2019,07,24,16,26,1.50
2019,07,24,16,27,1.70
2019,07,24,16,28,2.80
2019,07,24,16,29,2.80
2019,07,24,16,30,2.20
2019,07,24,16,31,3.30
2019,07,24,16,32,4.10
2019,07,24,16,33,3.40
2019,07,24,16,34,3.10
2019,07,24,16,35,1.80
2019,07,24,16,36,2.10
2019,07,24,16,37,2.90
2019,07,24,16,38,2.80
2019,07,24,16,39,2.20
2019,07,24,16,40,1.70
2019,07,24,16,41,3.30
2019,07,24,16,42,2.70
2019,07,24,16,43,2.50
2019,07,24,16,44,3.10
2019,07,24,16,45,2.10
2019,07,24,16,46,4.10
2019,07,24,16,47,4.90
2019,07,24,16,48,4.20
2019,07,24,16,49,4.60
2019,07,24,16,50,3.00
2019,07,24,16,51,2.30
2019,07,24,16,52,3.80
2019,07,24,16,53,2.00
2019,07,24,16,54,3.80
2019,07,24,16,55,3.20
2019,07,24,16,56,4.70
2019,07,24,16,57,3.90
2019,07,24,16,58,4.40
2019,07,24,16,59,1.20
2019,07,24,17,00,4.00
2019,07,24,17,01,2.60
2019,07,24,17,02,3.30
2019,07,24,17,03,3.90
2019,07,24,17,04,5.00
2019,07,24,17,05,3.70
2019,07,24,17,06,4.60
2019,07,24,17,07,2.50
2019,07,24,17,08,3.00
2019,07,24,17,09,4.00
2019,07,24,17,10,3.20
2019,07,24,17,11,1.40
2019,07,24,17,12,2.30
2019,07,24,17,13,3.20
2019,07,24,17,14,2.50
2019,07,24,17,15,2.00
2019,07,24,17,16,0.70
2019,07,24,17,17,3.60
2019,07,24,17,18,3.50
2019,07,24,17,19,4.30
2019,07,24,17,20,2.90
2019,07,24,17,21,3.50
2019,07,24,17,22,4.10
2019,07,24,17,23,2.80
2019,07,24,17,24,5.00
2019,07,24,17,25,4.50
2019,07,24,17,26,3.00
2019,07,24,17,27,1.40
2019,07,24,17,28,1.40
2019,07,24,17,29,4.70
2019,07,24,17,30,3.90
2019,07,24,17,31,1.60
2019,07,24,17,32,4.00
2019,07,24,17,33,2.30
2019,07,24,17,34,2.40
2019,07,24,17,35,1.90
2019,07,24,17,36,4.20
2019,07,24,17,37,2.50
2019,07,24,17,38,2.40
2019,07,24,17,39,1.60
2019,07,24,17,40,3.10
2019,07,24,17,41,3.00
2019,07,24,17,42,1.50
2019,07,24,17,43,1.20
2019,07,24,17,44,1.50
2019,07,24,17,45,3.20
2019,07,24,17,46,1.20
2019,07,24,17,47,4.30
2019,07,24,17,48,1.50
2019,07,24,17,49,2.30
2019,07,24,17,50,2.90
2019,07,24,17,51,5.70
2019,07,24,17,52,4.00
2019,07,24,17,53,5.90
2019,07,24,17,54,1.70
2019,07,24,17,55,2.00
2019,07,24,17,56,3.50
2019,07,24,17,57,2.70
2019,07,24,17,58,2.00
2019,07,24,17,59,1.20
2019,07,24,18,00,1.60
2019,07,24,18,01,2.10
2019,07,24,18,02,0.30
2019,07,24,18,03,1.90
2019,07,24,18,04,0.80
2019,07,24,18,05,2.40
2019,07,24,18,06,2.30